Hourly Weather Bolshie Yakentany

Today, 1 August, Sunday

Time Temperature Precipitation Wind Pressure Humidity
00:00 +18°C° 0.9 mm 2 mps 741 mmHg 88%
01:00 +17°C° 0.9 mm 2 mps 741 mmHg 92%
02:00 +17°C° 0 mm 2 mps 741 mmHg 95%
03:00 +17°C° 0 mm 2 mps 741 mmHg 95%
04:00 +17°C° 0 mm 3 mps 740 mmHg 95%
05:00 +17°C° 0 mm 3 mps 740 mmHg 95%
06:00 +18°C° 0 mm 3 mps 741 mmHg 91%
07:00 +19°C° 0 mm 3 mps 741 mmHg 86%
08:00 +20°C° 0 mm 3 mps 741 mmHg 81%
09:00 +21°C° 0 mm 4 mps 742 mmHg 71%
10:00 +23°C° 0 mm 4 mps 742 mmHg 61%
11:00 +25°C° 0 mm 4 mps 742 mmHg 51%
12:00 +25°C° 0 mm 4 mps 742 mmHg 50%
13:00 +25°C° 0 mm 4 mps 742 mmHg 49%
14:00 +26°C° 0 mm 4 mps 742 mmHg 48%
15:00 +26°C° 0 mm 4 mps 742 mmHg 50%
16:00 +26°C° 0 mm 3 mps 742 mmHg 52%
17:00 +26°C° 0 mm 3 mps 742 mmHg 54%
18:00 +24°C° 0 mm 2 mps 742 mmHg 59%
19:00 +23°C° 0 mm 2 mps 741 mmHg 65%
20:00 +21°C° 0 mm 1 mps 741 mmHg 70%
21:00 +21°C° 0.1 mm 1 mps 741 mmHg 74%
22:00 +20°C° 0.1 mm 1 mps 741 mmHg 79%
23:00 +18°C° 0.1 mm 2 mps 741 mmHg 83%

Tomorrow, 2 August, Monday

Time Temperature Precipitation Wind Pressure Humidity
00:00 +19°C° 0.3 mm 1 mps 740 mmHg 86%
01:00 +18°C° 0.3 mm 1 mps 740 mmHg 89%
02:00 +18°C° 0.3 mm 1 mps 739 mmHg 92%
03:00 +18°C° 1.9 mm 1 mps 739 mmHg 94%
04:00 +18°C° 1.9 mm 1 mps 738 mmHg 96%
05:00 +16°C° 1.9 mm 2 mps 737 mmHg 98%
06:00 +16°C° 2.7 mm 2 mps 737 mmHg 98%
07:00 +16°C° 2.7 mm 2 mps 736 mmHg 98%
08:00 +16°C° 2.7 mm 2 mps 736 mmHg 98%
09:00 +16°C° 1 mm 2 mps 737 mmHg 98%
10:00 +16°C° 1 mm 3 mps 737 mmHg 98%
11:00 +16°C° 1 mm 3 mps 737 mmHg 97%
12:00 +16°C° 1 mm 3 mps 738 mmHg 97%
13:00 +15°C° 1 mm 4 mps 738 mmHg 96%
14:00 +15°C° 1 mm 4 mps 739 mmHg 95%
15:00 +15°C° 0.1 mm 4 mps 739 mmHg 95%
16:00 +15°C° 0.1 mm 4 mps 739 mmHg 95%
17:00 +16°C° 0.1 mm 3 mps 740 mmHg 94%
18:00 +15°C° 0.1 mm 4 mps 740 mmHg 95%
19:00 +15°C° 0.1 mm 4 mps 740 mmHg 95%
20:00 +15°C° 0.1 mm 4 mps 741 mmHg 95%
21:00 +14°C° 0 mm 4 mps 741 mmHg 95%
22:00 +14°C° 0 mm 3 mps 741 mmHg 95%
23:00 +14°C° 0 mm 3 mps 742 mmHg 96%

Day after tomorrow, 3 August, Tuesday

Time Temperature Precipitation Wind Pressure Humidity
00:00 +13°C° 0 mm 3 mps 742 mmHg 95%
01:00 +13°C° 0 mm 3 mps 742 mmHg 95%
02:00 +12°C° 0 mm 3 mps 742 mmHg 95%
03:00 +12°C° 0 mm 3 mps 742 mmHg 95%
04:00 +12°C° 0 mm 3 mps 743 mmHg 95%
05:00 +12°C° 0 mm 3 mps 743 mmHg 95%
06:00 +13°C° 0 mm 4 mps 743 mmHg 89%
07:00 +14°C° 0 mm 4 mps 743 mmHg 84%
08:00 +17°C° 0 mm 4 mps 743 mmHg 78%
09:00 +17°C° 0 mm 5 mps 743 mmHg 73%
10:00 +19°C° 0 mm 5 mps 744 mmHg 68%
11:00 +20°C° 0 mm 5 mps 744 mmHg 63%
12:00 +20°C° 0.4 mm 5 mps 744 mmHg 65%
13:00 +20°C° 0.4 mm 5 mps 744 mmHg 68%
14:00 +20°C° 0.4 mm 5 mps 744 mmHg 71%
15:00 +20°C° 0.4 mm 5 mps 744 mmHg 72%
16:00 +20°C° 0.4 mm 5 mps 744 mmHg 74%
17:00 +20°C° 0.4 mm 4 mps 744 mmHg 76%
18:00 +18°C° 0.4 mm 4 mps 745 mmHg 81%
19:00 +17°C° 0.4 mm 3 mps 745 mmHg 85%
20:00 +16°C° 0.4 mm 2 mps 745 mmHg 90%
21:00 +15°C° 0 mm 2 mps 746 mmHg 90%
22:00 +14°C° 0 mm 2 mps 746 mmHg 91%
23:00 +13°C° 0 mm 2 mps 746 mmHg 91%

4 August, Wednesday

Time Temperature Precipitation Wind Pressure Humidity
00:00 +13°C° 0 mm 2 mps 746 mmHg 91%
01:00 +12°C° 0 mm 1 mps 747 mmHg 90%
02:00 +12°C° 0 mm 1 mps 747 mmHg 90%
03:00 +11°C° 0 mm 0 mps 747 mmHg 89%
04:00 +12°C° 0 mm 0 mps 747 mmHg 88%
05:00 +12°C° 0 mm 0 mps 747 mmHg 87%
06:00 +14°C° 0 mm 1 mps 748 mmHg 86%
07:00 +15°C° 0 mm 1 mps 748 mmHg 84%
08:00 +15°C° 0 mm 1 mps 748 mmHg 83%
09:00 +16°C° 0.1 mm 1 mps 748 mmHg 79%
10:00 +17°C° 0.1 mm 2 mps 748 mmHg 75%
11:00 +19°C° 0.1 mm 2 mps 748 mmHg 70%
12:00 +20°C° 0.1 mm 2 mps 748 mmHg 64%
13:00 +22°C° 0.1 mm 1 mps 748 mmHg 58%
14:00 +23°C° 0.1 mm 1 mps 748 mmHg 51%
15:00 +23°C° 0 mm 1 mps 748 mmHg 52%
16:00 +23°C° 0 mm 1 mps 748 mmHg 52%
17:00 +23°C° 0 mm 1 mps 747 mmHg 52%
18:00 +21°C° 0.1 mm 1 mps 747 mmHg 63%
19:00 +18°C° 0.1 mm 2 mps 747 mmHg 74%
20:00 +16°C° 0.1 mm 2 mps 748 mmHg 85%
21:00 +16°C° 0.1 mm 2 mps 747 mmHg 87%
22:00 +15°C° 0.1 mm 2 mps 747 mmHg 89%
23:00 +15°C° 0.1 mm 2 mps 747 mmHg 91%

5 August, Thursday

Time Temperature Precipitation Wind Pressure Humidity
00:00 +15°C° 0.1 mm 2 mps 747 mmHg 91%
01:00 +15°C° 0.1 mm 2 mps 747 mmHg 91%
02:00 +15°C° 0.1 mm 2 mps 747 mmHg 91%
03:00 +15°C° 0 mm 2 mps 747 mmHg 91%
04:00 +15°C° 0 mm 1 mps 747 mmHg 91%
05:00 +15°C° 0 mm 1 mps 746 mmHg 91%
06:00 +15°C° 0 mm 1 mps 746 mmHg 88%
07:00 +16°C° 0 mm 1 mps 746 mmHg 86%
08:00 +18°C° 0 mm 1 mps 746 mmHg 83%
09:00 +19°C° 0 mm 1 mps 746 mmHg 79%
10:00 +18°C° 0 mm 2 mps 746 mmHg 75%
11:00 +19°C° 0 mm 2 mps 746 mmHg 72%
12:00 +20°C° 0.1 mm 2 mps 746 mmHg 68%
13:00 +21°C° 0.1 mm 2 mps 746 mmHg 65%
14:00 +23°C° 0.1 mm 2 mps 746 mmHg 62%
15:00 +23°C° 0 mm 2 mps 745 mmHg 63%
16:00 +23°C° 0 mm 2 mps 745 mmHg 64%
17:00 +23°C° 0 mm 2 mps 745 mmHg 65%
18:00 +21°C° 0 mm 2 mps 745 mmHg 72%
19:00 +19°C° 0 mm 2 mps 744 mmHg 79%
20:00 +18°C° 0 mm 2 mps 744 mmHg 86%
21:00 +17°C° 0.1 mm 2 mps 744 mmHg 89%
22:00 +17°C° 0.1 mm 2 mps 744 mmHg 92%
23:00 +16°C° 0.1 mm 2 mps 744 mmHg 96%

6 August, Friday

Time Temperature Precipitation Wind Pressure Humidity
00:00 +16°C° 0.3 mm 2 mps 743 mmHg 96%
01:00 +16°C° 0.3 mm 2 mps 743 mmHg 97%
02:00 +16°C° 0.3 mm 2 mps 743 mmHg 98%
03:00 +16°C° 0.7 mm 2 mps 743 mmHg 98%
04:00 +16°C° 0.7 mm 2 mps 743 mmHg 98%
05:00 +16°C° 0.7 mm 2 mps 743 mmHg 99%
06:00 +16°C° 0.4 mm 2 mps 742 mmHg 98%
07:00 +16°C° 0.4 mm 2 mps 742 mmHg 98%
08:00 +16°C° 0.4 mm 2 mps 742 mmHg 98%
09:00 +17°C° 0.1 mm 2 mps 742 mmHg 97%
10:00 +17°C° 0.1 mm 2 mps 742 mmHg 95%
11:00 +18°C° 0.1 mm 3 mps 742 mmHg 94%
12:00 +19°C° 0.2 mm 3 mps 742 mmHg 91%
13:00 +19°C° 0.2 mm 3 mps 742 mmHg 87%
14:00 +20°C° 0.2 mm 3 mps 741 mmHg 84%
15:00 +20°C° 0.3 mm 3 mps 741 mmHg 86%
16:00 +19°C° 0.3 mm 3 mps 741 mmHg 89%
17:00 +19°C° 0.3 mm 3 mps 741 mmHg 91%
18:00 +18°C° 0.4 mm 2 mps 741 mmHg 93%
19:00 +18°C° 0.4 mm 2 mps 741 mmHg 95%
20:00 +17°C° 0.4 mm 2 mps 741 mmHg 98%
21:00 +17°C° 0.2 mm 2 mps 741 mmHg 98%
22:00 +16°C° 0.2 mm 1 mps 741 mmHg 98%
23:00 +16°C° 0.2 mm 1 mps 741 mmHg 98%
Show more

We Need Your Consent

Meteoprog and our Service Providers may store and access personal data such as cookies, device identifiers or other similar technologies on your device and process such data to personalise content and ads, as well as provide social media features and to analyse the traffic.

  • Store and/or access information on your device

    Cookies, device identifiers or other information can be stored or accessed on your device for the purposes indicated above.

  • Personalised ads and content, ad and content measurement, audience insights, and products development

    Ads and content can be personalised based on a profile. More data can be added to better personalise ads and content. Ad and content performance can be measured. Insights about the audience who saw the ads and content can be derived. Such data can be used to develop or improve user’s experience, systems and software.

By clicking ‘I Agree’ you will allow the use of indicated cookies, device identifiers, web beacons or other similar technologies. Your settings can be changed in the browser on your device.

For certain purposes, legitimate interests may be relied on, rather than consent. You can read more about this in our Privacy and Cookie Policy.